Location: Newark
(44.6028°N, 124.0883°W)
Time: 00:30:15
(UTC+00:00)

N. Korean satellite - Pass Details

Date: 30 October 2020
Orbit: 452 x 504 km, 97.2° (Epoch: 24 November)

Event Time Altitude Azimuth Distance (km) Brightness Sun altitude
Rises 02:07:28 0° 214° (SSW) 2,539 10.9 -11.0°
Reaches altitude 10° 02:10:47 10° 248° (WSW) 1,652 10.6 -11.6°
Maximum altitude 02:12:05 12° 269° (W) 1,548 10.6 -11.8°
Drops below altitude 10° 02:13:23 10° 291° (WNW) 1,646 10.3 -12.1°
Sets 02:16:41 0° 326° (NW) 2,517 10.6 -12.6°
